Location: Hohenfelde
(53.8441°N, 9.6220°E)
Time: 12:08:22
(UTC+00:00)

Cosmos 1536 - Pass Details

Date: 14 July 2020
Orbit: 539 x 560 km, 82.5° (Epoch: 12 August)

Event Time Altitude Azimuth Distance (km) Brightness Sun altitude
Exits shadow 02:02:45 - 194° (SSW) 2,020 5.1 -7.5°
Reaches altitude 10° 02:03:11 10° 195° (SSW) 1,844 4.9 -7.4°
Maximum altitude 02:07:15 78° 282° (WNW) 576 2.9 -7.1°
Drops below altitude 10° 02:11:20 10° 9° (N) 1,850 6.6 -6.7°
Sets 02:13:31 0° 11° (N) 2,746 7.7 -6.5°
